OE-11152 Weather Reports


time (UTC)temp
C
wind
direction
speed
KPH
gust
KPH
rain 1hr
cm
rain 24hr
cm
rain mn
cm
humidity
%
barometer
mb
20260903073518 20 267 4.8 16.1 0.00 0.00 0.00 62 1021.7
20260903072518 20 276 4.8 16.1 0.00 0.00 0.00 61 1021.8
20260903071132 19 264 3.2 9.7 0.00 0.00 0.00 62 1021.6
20260903070519 19 256 3.2 14.5 0.00 0.00 0.00 65 1021.7
20260903065519 19 259 3.2 6.4 0.00 0.00 0.00 64 1021.6
20260903064131 18 255 3.2 8.0 0.00 0.00 0.00 66 1021.7
20260903063518 18 254 3.2 9.7 0.00 0.00 0.00 64 1021.7
20260903062519 18 259 1.6 4.8 0.00 0.00 0.00 66 1021.9
20260903061132 18 243 1.6 4.8 0.00 0.00 0.00 70 1021.8
20260903060519 17 213 3.2 8.0 0.00 0.00 0.00 70 1021.8
20260903055518 17 222 1.6 6.4 0.00 0.00 0.00 72 1021.9
20260903054131 17 240 1.6 6.4 0.00 0.00 0.00 72 1022.0
20260903053519 16 234 1.6 6.4 0.00 0.00 0.00 72 1021.9
20260903052519 16 212 1.6 4.8 0.00 0.00 0.00 72 1021.8
20260903051132 16 220 3.2 6.4 0.00 0.00 0.00 72 1021.8
20260903050519 16 216 3.2 9.7 0.00 0.00 0.00 71 1021.7
20260903045519 16 214 3.2 8.0 0.00 0.00 0.00 70 1021.7
20260903044131 16 209 3.2 8.0 0.00 0.00 0.00 72 1021.8
20260903043518 16 205 1.6 4.8 0.00 0.00 0.00 72 1021.7
20260903042519 16 198 1.6 6.4 0.00 0.00 0.00 72 1021.6
20260903041131 17 194 3.2 6.4 0.00 0.00 0.00 69 1021.4
20260903040519 17 199 3.2 6.4 0.00 0.00 0.00 70 1021.4
20260903035519 17 206 3.2 8.0 0.00 0.00 0.00 69 1021.4
20260903034518 17 217 3.2 9.7 0.00 0.00 0.00 66 1021.4
20260903033518 17 217 3.2 9.7 0.00 0.00 0.00 66 1021.2
20260903032519 18 225 4.8 11.3 0.00 0.00 0.00 66 1021.2
20260903031132 18 224 3.2 8.0 0.00 0.00 0.00 65 1021.2
20260903030519 18 233 1.6 6.4 0.00 0.00 0.00 64 1021.1
20260903025519 18 250 3.2 4.8 0.00 0.00 0.00 65 1020.9
20260903024519 18 246 3.2 6.4 0.00 0.00 0.00 64 1021.0
20260903023519 19 251 3.2 8.0 0.00 0.00 0.00 65 1020.8
20260903022519 19 252 3.2 6.4 0.00 0.00 0.00 63 1020.8
20260903021131 19 253 3.2 8.0 0.00 0.00 0.00 64 1020.5
20260903020519 19 248 3.2 8.0 0.00 0.00 0.00 63 1020.5
20260903015519 19 250 3.2 6.4 0.00 0.00 0.00 61 1020.5
20260903014131 19 251 3.2 8.0 0.00 0.00 0.00 61 1020.5
20260903013518 19 249 3.2 8.0 0.00 0.00 0.00 60 1020.5
20260903012518 18 229 4.8 11.3 0.00 0.00 0.00 62 1020.5
20260903011132 18 221 3.2 8.0 0.00 0.00 0.00 60 1020.4
20260903010519 18 219 4.8 8.0 0.00 0.00 0.00 63 1020.5
20260903005519 18 228 4.8 9.7 0.00 0.00 0.00 62 1020.4
20260903004132 18 230 3.2 6.4 0.00 0.00 0.00 62 1020.4
20260903003519 18 204 1.6 6.4 0.00 0.00 0.00 62 1020.5
20260903002519 18 211 1.6 4.8 0.00 0.00 0.00 66 1020.5
20260903001531 18 232 1.6 6.4 0.00 0.00 0.00 63 1020.5
20260903000518 18 226 1.6 8.0 0.00 0.00 0.00 59 1020.4
20260902235518 18 224 3.2 9.7 0.00 0.00 0.00 58 1020.3
20260902234132 18 223 3.2 9.7 0.00 0.00 0.00 60 1020.3
20260902233518 18 228 3.2 6.4 0.00 0.00 0.00 61 1020.4
20260902232518 18 224 3.2 16.1 0.00 0.00 0.00 63 1020.5
20260902231519 18 222 3.2 8.0 0.00 0.00 0.00 67 1020.6
20260902230518 18 217 1.6 11.3 0.00 0.00 0.00 71 1020.7
20260902225519 18 199 4.8 12.9 0.00 0.00 0.00 69 1020.6
20260902224132 18 204 3.2 9.7 0.00 0.00 0.00 69 1020.7
20260902223519 17 181 1.6 6.4 0.00 0.00 0.00 74 1020.8
20260902222519 17 161 1.6 6.4 0.00 0.00 0.00 73 1020.6
20260902221132 17 259 0.0 3.2 0.00 0.00 0.00 75 1020.7
20260902220518 17 252 1.6 3.2 0.00 0.00 0.00 78 1020.6
20260902215519 17 267 0.0 3.2 0.00 0.00 0.00 78 1020.5
20260902214132 17 165 3.2 8.0 0.00 0.00 0.00 79 1020.6
20260902213518 17 287 1.6 3.2 0.00 0.00 0.00 78 1020.4
20260902211133 17 199 0.0 1.6 0.00 0.00 0.00 77 1020.5
20260902210519 17 223 1.6 1.6 0.00 0.00 0.00 76 1020.4
20260902205519 17 212 1.6 3.2 0.00 0.00 0.00 75 1020.4
20260902204133 17 200 1.6 3.2 0.00 0.00 0.00 75 1020.4
20260902203518 17 179 3.2 3.2 0.00 0.00 0.00 77 1020.3
20260902202519 18 177 1.6 4.8 0.00 0.00 0.00 80 1020.3
20260902201132 18 158 1.6 3.2 0.00 0.00 0.00 79 1020.3
20260902200519 18 314 1.6 4.8 0.00 0.00 0.00 79 1020.2
20260902195519 18 239 1.6 3.2 0.00 0.00 0.00 77 1020.2
20260902194132 18 172 1.6 4.8 0.00 0.00 0.00 73 1020.1
20260902193519 18 245 1.6 3.2 0.00 0.00 0.00 72 1020.1
20260902192518 18 155 1.6 3.2 0.00 0.00 0.00 71 1020.2
20260902191132 19 143 1.6 4.8 0.00 0.00 0.00 71 1019.9
20260902190518 19 105 3.2 6.4 0.00 0.00 0.00 74 1019.9
20260902185519 19 150 3.2 4.8 0.00 0.00 0.00 73 1019.7
20260902184132 19 51 1.6 4.8 0.00 0.00 0.00 71 1019.7
20260902183519 19 306 1.6 4.8 0.00 0.00 0.00 69 1019.5
20260902182519 20 228 1.6 4.8 0.00 0.00 0.00 63 1019.1
20260902181132 20 177 3.2 6.4 0.00 0.00 0.00 61 1019.0
20260902180519 20 162 3.2 4.8 0.00 0.00 0.00 63 1019.0
20260902175518 20 163 3.2 4.8 0.00 0.00 0.00 62 1018.8
20260902174132 21 81 1.6 4.8 0.00 0.00 0.00 62 1018.7
20260902173518 21 64 3.2 4.8 0.00 0.00 0.00 64 1018.7
20260902172519 21 48 3.2 6.4 0.00 0.00 0.00 65 1018.5
20260902171132 21 40 3.2 6.4 0.00 0.00 0.00 59 1018.4
20260902170519 22 335 0.0 4.8 0.00 0.00 0.00 60 1018.4
20260902165520 22 324 0.0 3.2 0.00 0.00 0.00 56 1018.4
20260902164132 22 341 3.2 6.4 0.00 0.00 0.00 53 1018.4
20260902163519 23 311 4.8 9.7 0.00 0.00 0.00 55 1018.2
20260902162519 23 303 6.4 9.7 0.00 0.00 0.00 51 1018.0
20260902161132 24 299 4.8 11.3 0.00 0.00 0.00 48 1017.9
20260902160518 24 289 6.4 14.5 0.00 0.00 0.00 47 1017.9
20260902155519 24 280 4.8 12.9 0.00 0.00 0.00 47 1017.9
20260902154132 24 278 6.4 19.3 0.00 0.00 0.00 47 1018.0
20260902153519 24 289 6.4 16.1 0.00 0.00 0.00 46 1018.0
20260902152518 24 268 4.8 14.5 0.00 0.00 0.00 48 1018.0
20260902151132 25 297 9.7 17.7 0.00 0.00 0.00 49 1017.9
20260902150519 25 315 6.4 12.9 0.00 0.00 0.00 47 1018.1
20260902145519 25 274 3.2 9.7 0.00 0.00 0.00 47 1018.1
20260902144132 24 256 3.2 6.4 0.00 0.00 0.00 48 1018.3
20260902143518 24 285 6.4 16.1 0.00 0.00 0.00 49 1018.2
20260902142519 24 292 6.4 14.5 0.00 0.00 0.00 48 1018.3
20260902141132 25 288 6.4 12.9 0.00 0.00 0.00 47 1018.1
20260902140519 25 243 1.6 6.4 0.00 0.00 0.00 46 1018.2
20260902135519 24 279 4.8 11.3 0.00 0.00 0.00 44 1018.6
20260902134131 24 301 6.4 14.5 0.00 0.00 0.00 45 1018.5
20260902133519 24 295 4.8 11.3 0.00 0.00 0.00 47 1018.6
20260902132519 23 295 6.4 12.9 0.00 0.00 0.00 51 1018.8
20260902131132 23 303 6.4 11.3 0.00 0.00 0.00 50 1019.0
20260902130519 23 305 8.0 14.5 0.00 0.00 0.00 50 1019.0
20260902125519 23 289 4.8 9.7 0.00 0.00 0.00 53 1018.9
20260902124131 23 351 0.0 6.4 0.00 0.00 0.00 52 1019.0
20260902123519 23 27 1.6 6.4 0.00 0.00 0.00 57 1019.0
20260902122519 23 320 3.2 9.7 0.00 0.00 0.00 48 1019.1
20260902121132 23 285 3.2 6.4 0.00 0.00 0.00 52 1019.2
20260902120518 23 343 3.2 11.3 0.00 0.00 0.00 54 1019.3
20260902115518 22 322 4.8 11.3 0.00 0.00 0.00 54 1019.4
20260902114132 22 334 3.2 11.3 0.00 0.00 0.00 57 1019.4
20260902113519 22 40 3.2 11.3 0.00 0.00 0.00 58 1019.4
20260902112519 22 8 1.6 8.0 0.00 0.00 0.00 51 1019.4
20260902111132 23 313 4.8 9.7 0.00 0.00 0.00 50 1019.5
20260902110519 23 296 4.8 11.3 0.00 0.00 0.00 53 1019.6
20260902105518 22 265 3.2 6.4 0.00 0.00 0.00 53 1019.9
20260902104132 22 270 1.6 4.8 0.00 0.00 0.00 51 1019.9
20260902103519 22 260 1.6 4.8 0.00 0.00 0.00 51 1020.1
20260902102518 23 288 3.2 6.4 0.00 0.00 0.00 51 1020.0
20260902101132 22 294 3.2 6.4 0.00 0.00 0.00 60 1020.2
20260902100519 21 18 1.6 6.4 0.00 0.00 0.00 63 1020.3
20260902095519 21 55 4.8 6.4 0.00 0.00 0.00 59 1020.4
20260902094132 21 59 4.8 6.4 0.00 0.00 0.00 60 1020.5
20260902093519 20 63 3.2 6.4 0.00 0.00 0.00 61 1020.6
20260902092518 20 51 1.6 4.8 0.00 0.00 0.00 62 1020.7
20260902091131 20 277 3.2 4.8 0.00 0.00 0.00 59 1020.7
20260902090519 20 286 3.2 4.8 0.00 0.00 0.00 63 1020.9
20260902084131 20 292 4.8 8.0 0.00 0.00 0.00 65 1020.9
20260902083519 20 290 4.8 6.4 0.00 0.00 0.00 66 1020.9
20260902082519 19 279 3.2 6.4 0.00 0.00 0.00 65 1020.9
20260902081131 19 260 1.6 6.4 0.00 0.00 0.00 66 1021.0
20260902080518 18 256 3.2 8.0 0.00 0.00 0.00 65 1021.2
20260902075519 18 258 1.6 6.4 0.00 0.00 0.00 66 1021.2
20260902074132 18 240 1.6 6.4 0.00 0.00 0.00 68 1021.2